Location: Kanice
(50.7421°N, 20.2099°E)
Time: 12:40:24
(UTC+00:00)

Daily predictions for brighter satellites

Satellite Brightness Start Highest point End
(mag) Time Altitude Azimuth Time Altitude Azimuth Time Altitude Azimuth
BREEZE-M DEB (TANK) 3.7 19:07:49 10° SW 19:10:47 51° SSE 19:20:13 10° ENE
NOSS 2-1 (C) 3.5 19:16:15 10° NW 19:19:58 89° NE 19:25:01 10° SE
MOS 1 Rocket 4.3 19:15:54 10° SE 19:20:51 43° ENE 19:25:56 10° N
Cosmos 1943 3.7 19:21:26 10° SW 19:27:05 67° WNW 19:32:45 10° NNE
Meteor 1-10 Rocket 4.2 19:23:24 10° S 19:29:03 84° ESE 19:34:41 10° NNE
Cosmos 1536 3.0 19:25:47 10° NNW 19:29:42 71° W 19:33:37 10° S
Cosmos 2279 Rocket 4.2 19:23:36 10° NNW 19:29:48 75° W 19:35:58 10° S
MetOp-B 4.4 19:24:31 10° S 19:29:52 76° WSW 19:35:16 10° NNW
Nadezhda 4 Rocket 4.3 19:26:55 10° SSE 19:32:53 52° E 19:38:57 10° NNE
Meteor 2-10 4.1 19:28:33 10° NNW 19:34:04 85° ENE 19:39:20 10° SSE
Cosmos 1340 2.4 19:32:04 10° N 19:35:28 70° ENE 19:38:50 10° SSE
FALCON 9 R/B 4.4 19:33:17 10° SW 19:37:27 19° S 19:45:33 10° SE
Meteor 1-11 Rocket 4.0 19:31:53 10° NNW 19:37:35 73° W 19:43:23 10° S
Spot 2 Rocket 3.6 19:32:57 10° SSE 19:37:57 69° ENE 19:42:59 10° N
Okean-O 3.8 19:34:41 10° SSW 19:38:50 40° W 19:43:00 10° NNW
USA 245 2.1 19:37:00 10° SSE 19:39:20 86° ENE 19:42:03 10° NNW
Landsat 4 3.5 19:35:55 10° SSE 19:39:23 68° ENE 19:42:51 10° N
Cosmos 1500 Rocket 3.6 19:35:05 10° NNW 19:39:25 82° W 19:43:42 10° S
Cosmos 1697 Rocket 3.8 19:38:34 10° NNW 19:43:42 34° NE 19:48:48 10° ESE
SPOT 5 3.3 19:39:40 10° S 19:44:01 53° W 19:48:16 10° NNW
Cosmos 1626 3.5 19:45:10 11° SE 19:47:10 18° E 19:49:25 10° NE
Sich 1 3.1 19:42:55 10° NNW 19:47:19 81° W 19:51:41 10° S
NOSS 3-3 (C) 4.4 19:43:37 10° S 19:48:29 35° ESE 19:54:06 10° NE
Cosmos 1726 3.9 19:47:59 10° NW 19:50:30 22° W 19:52:59 10° SW
Cosmos 1805 Rocket 3.7 19:46:38 10° NNW 19:51:03 76° W 19:55:27 10° S
Cosmos 1980 Rocket 3.9 19:48:52 10° NNW 19:53:32 25° NE 19:58:11 10° E
Cosmos 1633 Rocket 3.9 19:50:07 10° N 19:54:15 37° ENE 19:57:53 13° SE
Cosmos 1733 3.3 19:52:28 10° NNW 19:55:57 63° W 19:59:24 10° S
Cosmos 1666 Rocket 3.9 19:56:00 10° N 20:00:12 49° ENE 20:03:46 14° SSE
SL-8 R/B 3.7 19:55:42 10° W 20:00:25 65° S 20:05:08 10° ESE
USA 234 4.0 19:54:19 10° ENE 20:00:43 57° NNW 20:07:05 10° W
Ariane Rocket 3.1 19:56:10 10° SSE 20:01:15 82° WSW 20:06:22 10° NNW
Cosmos 44 Rocket 3.8 19:57:47 10° NW 20:02:41 54° NE 20:07:10 11° ESE
Lacrosse 5 rocket 2.7 19:59:23 10° WNW 20:03:24 39° NNE 20:07:19 10° E
Meteor 2-4 Rocket 4.0 20:04:50 10° S 20:10:37 57° E 20:16:25 10° NNE
Cosmos 2026 Rocket 4.2 20:05:14 10° SSE 20:11:17 54° E 20:17:17 10° NNE
Cosmos 1674 4.5 20:11:20 12° ESE 20:12:46 15° E 20:14:48 10° NE
ERS-1 Rocket 3.8 20:08:59 10° S 20:13:50 48° W 20:18:43 10° NNW
SPOT 3 Rocket 3.8 20:10:36 10° S 20:15:39 69° WSW 20:20:48 10° NNW
USA 59 Rocket 1.1 20:12:15 10° WNW 20:15:59 38° SW 20:20:16 13° S
Cosmos 614 Rocket 4.0 20:12:14 10° SSW 20:17:27 88° ESE 20:22:42 10° NNE
Lacrosse 4 Rocket 1.8 20:14:27 10° NW 20:18:27 52° WSW 20:21:37 16° SSE
Cosmos 1340 Rocket 3.5 20:14:47 10° SSW 20:18:43 55° WNW 20:22:38 10° N
Spot 1 4.1 20:14:47 10° NNE 20:18:54 60° ESE 20:22:51 12° S
Cosmos 1818 3.6 20:13:34 10° SSW 20:18:58 66° SE 20:24:25 10° NE
Meteor 1-27 Rocket 4.2 20:15:53 10° SSW 20:21:20 61° WNW 20:26:54 10° N
IRIDIUM 106 4.3 20:23:13 10° N 20:28:29 80° E 20:32:49 15° S
H-2A R/B 4.2 20:25:54 12° ESE 20:28:59 24° ENE 20:32:26 10° N
Terra 2.9 20:24:42 10° SSW 20:29:07 39° W 20:33:33 10° NNW
Cosmos 1805 3.8 20:25:59 10° NNW 20:29:36 51° W 20:32:42 13° S
Cosmos 1833 Rocket 3.2 20:26:09 13° S 20:30:45 41° ESE 20:35:59 10° NE
Cosmos 1766 3.4 20:28:58 10° N 20:32:40 55° ENE 20:34:59 21° SSE
Cosmos 1656 4.0 20:27:26 10° NW 20:32:49 59° WSW 20:37:08 16° S
Cosmos 1269 Rocket 4.0 20:33:07 10° SSW 20:38:22 72° ESE 20:43:38 10° NNE
Cosmos 2082 Rocket 3.8 20:42:10 14° SE 20:44:16 17° E 20:47:54 10° ENE
Cosmos 1553 Rocket 4.1 20:40:06 10° N 20:46:10 66° ENE 20:50:36 19° SSE
Cosmos 1470 3.4 20:43:34 10° N 20:47:04 38° ENE 20:48:57 22° SE
Landsat 5 3.4 20:43:50 10° N 20:47:38 74° WNW 20:51:05 13° SSW
Cosmos 1151 Rocket 4.2 20:44:45 10° SW 20:48:51 41° WNW 20:52:58 10° N
Cosmos 1975 3.8 20:47:05 10° NNW 20:50:48 41° W 20:53:47 15° SSW
Cosmos 2360 4.3 20:45:17 10° NNW 20:51:00 70° WSW 20:55:00 20° SSE
GEOS 3 Rocket 3.8 20:52:16 10° NE 20:57:16 47° SE 21:01:25 14° SSW
Meteor 1-18 Rocket 4.5 20:52:54 10° SSW 20:58:46 79° WNW 21:04:42 10° N
USA 281 3.5 20:54:10 18° S 20:59:11 61° WSW 21:05:45 10° NNW
Cosmos 1908 3.9 21:00:06 10° N 21:03:29 39° ENE 21:05:04 25° SE
NOSS 3-3 (A) 3.9 20:59:35 10° SW 21:05:10 81° NW 21:11:46 10° NE
ARIANE 5 R/B 2.6 21:02:57 25° SSE 21:05:27 76° ENE 21:09:47 10° NNW
Cosmos 2285 Rocket 4.3 21:03:59 20° S 21:08:10 50° ESE 21:14:16 10° NNE
Cosmos 1092 Rocket 4.4 21:01:56 10° SSW 21:08:10 66° WNW 21:14:31 10° N
Cosmos 1328 Rocket 4.0 21:05:06 14° SSW 21:08:46 58° WNW 21:13:02 10° N
H-2A R/B 4.4 21:10:40 10° ENE 21:11:27 10° E 21:12:13 10° E
CZ-2C R/B 3.6 21:08:36 10° NNE 21:13:04 68° ESE 21:15:38 25° S
BREEZE-M DEB (TANK) 3.5 21:15:39 31° SSE 21:16:08 33° SE 21:21:17 10° ENE
Cosmos 1140 Rocket 3.5 21:14:22 20° S 21:18:00 69° ESE 21:23:12 10° NNE
Cosmos 1515 Rocket 3.4 21:17:02 24° S 21:19:37 89° ESE 21:23:58 10° N
Cosmos 1626 3.4 21:17:57 12° SW 21:20:29 30° WNW 21:23:23 10° N
NOSS 3-4 (A) 3.8 21:13:52 10° NW 21:20:38 77° SW 21:26:14 21° SSE
NOSS 3-4 (C) 3.8 21:13:58 10° NW 21:20:44 78° SW 21:26:21 21° SSE
Cosmos 2266 Rocket 4.3 21:17:38 23° SSE 21:21:26 53° E 21:27:33 10° NNE
Spot 4 4.1 21:19:17 24° SE 21:22:02 58° ENE 21:26:44 10° N
Cosmos 1707 2.5 21:26:10 34° S 21:27:36 71° E 21:31:15 10° NNE
Cosmos 1697 Rocket 3.1 21:22:27 10° NW 21:27:55 53° WSW 21:31:08 24° S
Cosmos 2322 Rocket 4.2 21:23:44 10° NNW 21:28:09 23° NE 21:32:35 10° E
OPS 6432 4.4 21:25:34 10° NW 21:28:44 66° NE 21:29:58 32° ESE
PSLV R/B 3.8 21:24:47 10° NNE 21:28:51 76° ESE 21:30:48 29° S
Cosmos 1400 Rocket 4.2 21:27:50 21° ESE 21:28:59 24° E 21:32:12 10° NE
Cosmos 1470 Rocket 4.4 21:24:52 10° NNW 21:29:04 42° W 21:31:41 20° SSW
BREEZE-M DEB (TANK) 2.3 21:22:53 10° WSW 21:29:58 81° SSE 21:32:29 10° ENE
Cosmos 1869 Rocket 3.6 21:26:26 10° N 21:30:49 68° ENE 21:32:56 30° SSE
Meteor 1-15 Rocket 4.4 21:25:30 10° N 21:31:05 61° ENE 21:34:24 24° SSE
Cosmos 1300 4.1 21:28:08 10° NNE 21:31:09 25° ENE 21:32:38 19° ESE
Cosmos 1441 Rocket 3.0 21:32:52 10° N 21:36:27 70° ENE 21:37:42 37° SSE
Orbus 7S? 2.9 21:33:21 10° SW 21:38:01 77° SSE 21:40:52 10° ENE
Cosmos 1980 Rocket 2.2 21:32:31 10° NNW 21:38:16 85° WSW 21:41:38 26° SSE
NOSS 3-3 (C) 4.5 21:33:29 10° WSW 21:39:01 59° NW 21:45:43 10° NE
Lacrosse 5 rocket 1.2 21:37:52 10° WNW 21:42:06 84° SSW 21:44:16 27° SE
SL-8 R/B 4.3 21:38:08 10° W 21:42:27 35° SSW 21:43:39 30° S
USA 234 4.0 21:36:54 10° E 21:43:14 54° N 21:49:35 10° WNW
Cosmos 2333 Rocket 4.3 21:39:01 10° NNW 21:43:27 22° NE 21:47:53 10° E
Cosmos 2228 Rocket 4.2 21:41:50 24° SE 21:43:35 33° E 21:47:38 10° NNE
Cosmos 44 Rocket 4.4 21:39:40 10° WNW 21:43:55 30° WSW 21:45:49 23° SSW
Cosmos 1655 Rocket 4.3 21:41:21 25° SSE 21:45:04 56° E 21:51:19 10° NNE
Cosmos 1842 3.7 21:44:35 25° SW 21:46:28 52° WNW 21:50:05 10° N
Cosmos 1674 3.4 21:44:53 23° SW 21:46:42 43° WNW 21:50:03 10° N
Cosmos 540 Rocket 3.6 21:42:33 10° NNW 21:47:44 69° ENE 21:50:44 25° SE
Cosmos 1763 Rocket 3.5 21:44:40 10° NNW 21:50:01 88° WSW 21:52:51 28° SSE
Cosmos 468 Rocket 4.2 21:47:20 10° NNW 21:52:39 70° ENE 21:55:43 25° SE
Cosmos 1933 Rocket 4.3 21:49:51 10° NNW 21:54:01 44° W 21:56:09 25° SSW
GP-B 3.6 21:54:52 10° NNE 21:59:09 47° E 22:00:59 29° SE
Cosmos 407 Rocket 3.5 21:56:19 22° SSW 21:59:50 83° WNW 22:05:06 10° NNE
SL-14 R/B 3.8 22:01:00 33° SE 22:02:06 42° E 22:05:43 10° NNE
H-2A R/B 3.1 22:01:54 29° SSW 22:03:40 46° W 22:07:50 10° NNW
Aureole 3 4.3 22:04:37 23° ESE 22:05:02 23° E 22:07:43 10° NE
Cosmos 2369 3.8 22:00:07 10° NNW 22:05:50 71° WSW 22:08:52 29° SSE
Cosmos 1862 Rocket 4.3 22:05:04 28° SE 22:06:39 39° E 22:10:42 10° NNE
Cosmos 1607 4.3 22:00:49 10° SW 22:07:16 68° NW 22:13:46 10° NE
Cosmos 1455 4.3 22:05:19 10° NNE 22:07:39 17° ENE 22:09:28 12° ESE
Cosmos 1954 Rocket 4.3 22:05:17 30° SSE 22:07:40 53° ESE 22:12:50 10° NNE
Cosmos 1190 Rocket 4.0 22:10:54 28° SSW 22:13:42 76° ESE 22:19:02 10° NNE
ALOS 2 2.7 22:12:16 34° S 22:14:05 67° WSW 22:18:29 10° NNW
Cosmos 1833 Rocket 3.8 22:09:22 10° WSW 22:14:41 42° NW 22:20:02 10° NNE
Cosmos 2219 Rocket 4.4 22:11:51 10° NNW 22:16:13 22° NE 22:20:36 10° E
ATLAS 2AS CENTAUR R/B 4.0 22:10:42 10° NW 22:17:14 40° NNE 22:23:30 10° E
SL-16 R/B 2.7 22:12:38 10° NNW 22:18:15 56° NE 22:22:42 16° SE
COSMOS 2406 3.3 22:15:19 28° S 22:18:26 68° ESE 22:24:10 10° NNE
Cosmos 1758 3.1 22:16:55 10° NNW 22:20:46 82° W 22:22:01 41° S
PSLV R/B 3.8 22:17:21 10° NNE 22:21:47 59° E 22:23:26 35° SSE
Meteor 1-12 Rocket 4.4 22:17:33 10° NNW 22:23:29 72° W 22:26:45 28° S
Meteor 1-23 Rocket 4.2 22:20:51 28° S 22:23:56 89° ESE 22:29:39 10° NNE
Cosmos 2082 Rocket 2.2 22:23:56 24° SSW 22:27:33 90° WNW 22:33:19 10° NNE
Meteor 2-20 4.4 22:21:40 10° N 22:27:52 88° W 22:31:23 28° S
Cosmos 2251 Rocket 4.0 22:24:49 17° SW 22:28:43 56° WNW 22:33:57 10° NNE
CZ-2C R/B 4.2 22:26:20 26° SSE 22:29:13 69° E 22:51:26 10° N
Cosmos 1707 Rocket 3.5 22:28:05 35° S 22:29:54 79° E 22:34:23 10° NNE
Cosmos 2360 Rocket 3.4 22:25:03 10° NNW 22:30:23 39° NE 22:35:40 10° ESE
Meteor 2-10 Rocket 4.0 22:30:14 10° NNW 22:35:58 61° W 22:38:54 28° SSW
Okean 2 4.2 22:38:45 28° SE 22:40:05 37° E 22:43:47 10° NNE
Okean 3 3.4 22:41:11 38° S 22:42:38 69° E 22:46:45 10° NNE
Meteor 1-4 Rocket 3.4 22:42:38 26° ESE 22:42:54 27° E 22:45:29 10° NE
H-2A R/B 2.0 22:43:27 10° NNE 22:47:55 79° ESE 22:49:42 35° S
USA 267 3.9 22:42:30 10° ENE 22:48:24 35° SE 22:51:04 26° S
Nadezhda 1 Rocket 4.5 22:43:22 10° N 22:49:42 57° ENE 22:54:10 20° SSE
Cosmos 1315 Rocket 3.8 22:49:16 27° SE 22:50:35 35° E 22:54:13 10° NNE
Cosmos 2237 4.2 22:47:23 10° NNW 22:53:09 80° WSW 22:56:34 25° SSE
Cosmos 1346 Rocket 3.1 22:54:02 10° NNW 22:57:49 51° W 22:58:57 37° SSW
Cosmos 1908 Rocket 3.7 22:53:45 10° N 22:58:11 69° ENE 23:00:16 30° SSE
Cosmos 1733 Rocket 3.8 22:57:31 10° NNW 23:01:36 40° W 23:03:12 28° SW
SL-4 R/B 3.5 23:02:20 21° SE 23:02:20 21° SE 23:05:23 10° E
Helios 1A Rocket 3.9 23:01:29 18° SE 23:03:51 37° ENE 23:07:25 10° N
Cosmos 2278 3.8 22:58:26 10° NW 23:04:03 60° WSW 23:07:01 28° S
Cosmos 1400 Rocket 4.0 23:02:59 22° WSW 23:04:52 35° WNW 23:08:31 10° N
Cosmos 1244 Rocket 4.5 23:02:01 27° SSW 23:05:36 83° W 23:11:53 10° N
Cosmos 1300 3.9 23:02:50 10° NNW 23:05:52 26° W 23:06:40 24° WSW
Cosmos 1850 Rocket 4.2 23:10:20 29° S 23:12:55 60° ESE 23:18:05 10° NNE
Cosmos 2322 Rocket 2.2 23:07:20 10° NNW 23:13:02 86° ENE 23:17:16 19° SSE
Cosmos 841 Rocket 3.7 23:08:30 10° NNW 23:13:38 55° WSW 23:16:05 29° S
Cosmos 1408 4.2 23:15:08 15° ESE 23:16:03 17° E 23:18:06 10° NE
Resurs 1-4 Rocket 4.3 23:13:40 10° NE 23:16:35 15° E 23:19:30 10° ESE
Cosmos 1242 Rocket 3.3 23:19:14 26° ESE 23:19:45 27° E 23:22:15 10° NE
Lacrosse 5 rocket 3.1 23:17:04 10° W 23:19:04 17° WSW 23:19:04 17° WSW
Okean 1-7 3.0 23:18:10 33° SSW 23:20:02 78° WNW 23:24:23 10° N
Cosmos 1980 Rocket 4.0 23:18:02 10° WNW 23:21:24 16° W 23:23:22 14° WSW
Cosmos 2228 Rocket 4.4 23:19:15 19° WSW 23:21:44 32° WNW 23:25:48 10° N
Cosmos 1741 Rocket 4.1 23:19:46 29° S 23:22:27 68° ESE 23:27:42 10° NNE
CZ-2D R/B 4.3 23:21:00 10° NE 23:24:29 17° E 23:27:55 10° SE
USA 234 3.3 23:19:25 10° ESE 23:26:00 86° NNE 23:32:36 10° WNW
SL-27 R/B 3.2 23:27:58 27° ESE 23:28:16 28° ESE 23:30:44 10° NE
Cosmos 2333 Rocket 2.3 23:22:52 10° NNW 23:28:38 82° ENE 23:33:44 13° SSE
Cosmos 1238 4.1 23:26:33 10° N 23:29:56 88° W 23:30:45 46° S
Cosmos 1953 2.6 23:27:03 10° NNW 23:30:50 50° W 23:32:08 34° SSW
Timation 1 Rocket 4.4 23:28:39 26° SSW 23:32:05 70° ESE 23:38:03 10° NE
Genesis I 2.8 23:33:03 39° SSW 23:34:15 82° SE 23:37:49 10° NE
Cosmos 1709 Rocket 4.4 23:30:45 21° SSE 23:35:02 61° E 23:41:19 10° NNE
BREEZE-M DEB (TANK) 4.1 23:34:39 30° SSE 23:35:26 34° SE 23:41:22 10° ENE
IDEFIX/ARIANE 42P 4.1 23:34:28 10° NE 23:38:58 28° E 23:42:54 12° SSE
Cosmos 1703 Rocket 3.6 23:38:29 30° SSW 23:40:38 73° W 23:45:07 10° N
SL-19 R/B 4.1 23:36:44 10° NNE 23:40:43 83° ESE 23:42:10 35° SSW
Cosmos 1455 2.6 23:39:02 10° NNW 23:42:18 40° W 23:43:13 33° SW
Cosmos 1300 Rocket 3.5 23:40:14 10° N 23:44:35 87° E 23:47:00 26° S
ADEOS II 4.3 23:42:27 10° NE 23:45:46 17° E 23:49:04 10° SE
SJ 16-02 1.6 23:45:36 28° S 23:47:42 58° ESE 23:51:57 10° NNE
RESURS DK-1 2.2 23:44:48 10° NW 23:48:51 68° WSW 23:51:06 25° SSE
